Weather History for Montgomery, AL

Change the Weather History Date:

Tuesday, April 9, 2013

  Actual Average Record
Temperature  
Mean Temperature 73 °F 62 °F  
Max Temperature 88 °F 75 °F 89 °F (2011)
Min Temperature 57 °F 50 °F 31 °F (2000)
Degree Days  
Heating Degree Days 0 4  
Month to date heating degree days 35 43  
Since 1 July heating degree days 1883 2170  
Cooling Degree Days 8 2  
Month to date cooling degree days 13 14  
Year to date cooling degree days 46 43  
Growing Degree Days 22 (Base 50)    
Moisture  
Dew Point 57 °F    
Average Humidity 62    
Maximum Humidity 87    
Minimum Humidity 36    
Precipitation  
Precipitation 0.00 in 0.16 in 3.41 in (1883)
Month to date precipitation 0.18 1.43  
Year to date precipitation 20.32 17.31  
Snow  
Snow 0.00 in 0.00 in - ()
Month to date snowfall 0.0 0.0  
Since 1 July snowfall 0.0 0.4  
Snow Depth 0.00 in    
Sea Level Pressure  
Sea Level Pressure 30.08 in    
Wind  
Wind Speed 6 mph (SE)    
Max Wind Speed 15 mph    
Max Gust Speed 21 mph    
Visibility 10 miles    
Events      
T = Trace of Precipitation, MM = Missing Value Source: NWS Daily Summary

Daily Weather History Graph

Daily Weather History Graph

Search for Another Location

Airport:

Trip Planner

Search our weather history database for the weather conditions in past years. The results will help you decide how hot, cold, wet, or windy it might be!

Date:

Astronomy

Apr. 09, 2013 Rise Set
Actual Time 6:23 AM CDT 7:11 PM CDT
Civil Twilight 5:58 AM CDT 7:36 PM CDT
Nautical Twilight 5:29 AM CDT 8:05 PM CDT
Astronomical Twilight 4:59 AM CDT 8:35 PM CDT
Moon 5:44 AM CDT (4/9) 6:45 PM CDT (4/9)
Length of Visible Light 13h 37m
Length of Day
12h 47m
Waning Crescent, 1% of the Moon is Illuminated
Apr 9
Waning Crescent
Apr 10
New
Apr 18
First Quarter
Apr 25
Full
May 2
Last Quarter

Hourly Weather History & Observations

Time (CDT) Temp. Heat Index Dew Point Humidity Pressure Visibility Wind Dir Wind Speed Gust Speed Precip Events Conditions
12:53 AM 64.0 °F - 57.0 °F 78% 30.07 in 10.0 mi SSE 5.8 mph - N/A   Clear
1:53 AM 63.0 °F - 55.9 °F 78% 30.05 in 10.0 mi SE 3.5 mph - N/A   Clear
2:53 AM 59.0 °F - 55.0 °F 87% 30.04 in 10.0 mi East 4.6 mph - N/A   Clear
3:53 AM 59.0 °F - 55.0 °F 87% 30.03 in 10.0 mi East 5.8 mph - N/A   Clear
4:53 AM 59.0 °F - 55.0 °F 87% 30.04 in 10.0 mi East 3.5 mph - N/A   Clear
5:53 AM 57.9 °F - 54.0 °F 87% 30.06 in 10.0 mi East 4.6 mph - N/A   Clear
6:53 AM 59.0 °F - 55.9 °F 90% 30.08 in 10.0 mi East 3.5 mph - N/A   Clear
7:53 AM 64.0 °F - 57.9 °F 80% 30.11 in 10.0 mi ESE 4.6 mph - N/A   Clear
8:53 AM 72.0 °F - 57.9 °F 61% 30.10 in 10.0 mi SE 11.5 mph - N/A   Clear
9:53 AM 77.0 °F - 57.0 °F 50% 30.12 in 10.0 mi SSE 10.4 mph 18.4 mph N/A   Clear
10:53 AM 81.0 °F 80.8 °F 55.9 °F 42% 30.14 in 10.0 mi SE 10.4 mph 17.3 mph N/A   Clear
11:53 AM 82.9 °F 82.4 °F 57.0 °F 41% 30.14 in 10.0 mi SE 10.4 mph - N/A   Clear
12:53 PM 84.9 °F 83.9 °F 57.0 °F 38% 30.12 in 10.0 mi SSE 9.2 mph - N/A   Partly Cloudy
1:53 PM 84.9 °F 83.7 °F 55.9 °F 37% 30.10 in 10.0 mi Variable 5.8 mph - N/A   Scattered Clouds
2:53 PM 88.0 °F 86.7 °F 57.0 °F 35% 30.09 in 10.0 mi ESE 6.9 mph - N/A   Mostly Cloudy
3:53 PM 87.1 °F 86.1 °F 57.9 °F 37% 30.06 in 10.0 mi SSE 8.1 mph - N/A   Partly Cloudy
4:53 PM 87.1 °F 86.1 °F 57.9 °F 37% 30.04 in 10.0 mi SSE 9.2 mph - N/A   Partly Cloudy
5:53 PM 84.9 °F 83.9 °F 57.0 °F 38% 30.03 in 10.0 mi SE 9.2 mph - N/A   Clear
6:53 PM 80.1 °F 80.6 °F 57.9 °F 47% 30.04 in 10.0 mi SSE 4.6 mph - N/A   Clear
7:53 PM 77.0 °F - 57.0 °F 50% 30.05 in 10.0 mi SSE 3.5 mph - N/A   Clear
8:53 PM 73.9 °F - 57.0 °F 55% 30.07 in 10.0 mi South 3.5 mph - N/A   Clear
9:53 PM 73.0 °F - 57.9 °F 59% 30.08 in 10.0 mi South 5.8 mph - N/A   Clear
10:53 PM 71.1 °F - 57.9 °F 63% 30.09 in 10.0 mi South 6.9 mph - N/A   Clear
11:53 PM 69.1 °F - 57.9 °F 68% 30.09 in 10.0 mi South 3.5 mph - N/A   Clear